Regional Weather Roundup
Issued by NWS

Home | Current Version | Previous Version | Graphics & Text | Print | Product List | Glossary On
Versions: 1 2 3 4 5 6 7 8 9 10 11 12 13 14 15 16 17 18 19 20 21 22 23 24 25 26 27 28 29 30 31 32 33 34 35 36 37 38 39 40 41 42 43 44 45 46 47 48 49 50
000
ASUS43 KOAX 290902
RWRNE

WEATHER ROUNDUP FOR NEBRASKA
NATIONAL WEATHER SERVICE OMAHA NE
400 AM CDT THU SEP 29 2016

NOTES: SATELLITE DATA IS BEING USED TO AUGMENT CLOUD COVER ABOVE
       12000 FEET.
       "FAIR" INDICATES FEW OR NO CLOUDS BELOW 12,000 FEET WITH NO
       SIGNIFICANT WEATHER AND/OR OBSTRUCTIONS TO VISIBILITY.

  * THESE STATIONS DO NOT REPORT WEATHER SUCH AS RAIN...SNOW OR FOG.

NEZ001>004-019>022-054>056-291000-
NEBRASKA PANHANDLE

CITY           SKY/WX    TMP DP  RH WIND       PRES   REMARKS
SCOTTSBLUFF    CLEAR     50  39  66 E9        30.35F
ALLIANCE       CLEAR     42  36  79 SE8       30.36F
CHADRON        CLEAR     57  34  41 S13       30.33F
KIMBALL        CLEAR     47  40  76 S5        30.38F
SIDNEY         CLEAR     49  38  65 S10       30.39R
$$

NEZ057>060-069>072-079>082-291000-
SOUTHWEST NEBRASKA

CITY           SKY/WX    TMP DP  RH WIND       PRES   REMARKS
NORTH PLATTE   CLOUDY    38  35  89 E6        30.40R WCI  33
IMPERIAL       CLOUDY    44  35  70 E3        30.38F
LEXINGTON      CLOUDY    40  37  90 NE3       30.40S
MCCOOK         CLOUDY    42  37  82 CALM      30.39R
OGALLALA       CLOUDY    43  37  79 CALM      30.38F
$$

NEZ005>010-023>029-035>040-094-291000-
NORTH CENTRAL NEBRASKA

CITY           SKY/WX    TMP DP  RH WIND       PRES   REMARKS
VALENTINE      CLOUDY    40  37  89 CALM      30.39R
AINSWORTH      CLOUDY    40  39  98 CALM      30.39S
BROKEN BOW     CLOUDY    36  35  96 CALM      30.39S
O`NEILL        CLOUDY    43  41  95 CALM      30.40S
ORD            CLOUDY    37  34  89 CALM      30.39R
THEDFORD       CLOUDY    38  37  94 CALM      30.40S
$$

NEZ041-046>049-061>064-073>077-083>087-291000-
SOUTH CENTRAL NEBRASKA

CITY           SKY/WX    TMP DP  RH WIND       PRES   REMARKS
GRAND ISLAND   CLEAR     40  38  93 N3        30.39S
AURORA         CLOUDY    42  41  97 N3        30.39R
HASTINGS       CLOUDY    42  38  85 CALM      30.39S
HEBRON         CLOUDY    44  43  93 CALM      30.37S
HOLDREGE       CLOUDY    40  38  93 CALM      30.39S
KEARNEY *      CLOUDY    43  37  81 CALM      30.39R
YORK           CLOUDY    41  41 100 CALM      30.39R
$$

NEZ011>018-030>034-042>045-291000-
NORTHEAST NEBRASKA

CITY           SKY/WX    TMP DP  RH WIND       PRES   REMARKS
NORFOLK        CLOUDY    42  40  92 CALM      30.40R
ALBION         CLOUDY    39  37  94 NW3       30.40R
BLAIR          CLEAR     48  46  91 N7        30.36S
FREMONT        CLEAR     43  43  99 CALM      30.38S
TEKAMAH        CLEAR     44  42  93 N7        30.38R
WAYNE          CLOUDY    38  37  97 CALM      30.41S
$$

NEZ050>053-065>068-078-088>093-291000-
SOUTHEAST NEBRASKA

CITY           SKY/WX    TMP DP  RH WIND       PRES   REMARKS
LINCOLN        CLEAR     43  42  97 N7        30.38S
OMAHA EPPLEY   CLEAR     47  43  86 N7        30.37R
BEATRICE       CLEAR     46  44  95 NE5       30.36S
FALLS CITY     CLEAR     49  46  90 NW7       30.32S
NEBRASKA CITY  CLEAR     49  46  89 N6        30.35S
PLATTSMOUTH    CLEAR     47  43  88 W6        30.36S
$$

NEZ044-045-051>053-067-291000-
OMAHA AREA

CITY           SKY/WX    TMP DP  RH WIND       PRES   REMARKS
OMAHA EPPLEY   CLEAR     47  43  86 N7        30.37R
BLAIR          CLEAR     48  46  91 N7        30.36S
FREMONT        CLEAR     43  43  99 CALM      30.38S
MILLARD        CLEAR     49  46  88 NW3       30.37S
PLATTSMOUTH    CLEAR     47  43  88 W6        30.36S
WAHOO          FAIR      46  44  92 NW7       30.38S
$$



USA.gov is the U.S. government's official web portal to all federal, state and local government web resources and services.